| time (UTC) | temp F | wind direction | speed MPH | gust MPH | rain 1hr in | rain 24hr in | rain mn in | humidity % | barometer mb |
| 20260905174517 | 80 | 296 | 1.0 | 3.0 | 0.00 | 0.00 | 0.00 | 59 | 1010.0 |
| 20260905173518 | 79 | 322 | 1.0 | 4.0 | 0.00 | 0.00 | 0.00 | 59 | 1010.0 |
| 20260905172537 | 78 | 321 | 2.0 | 4.0 | 0.00 | 0.00 | 0.00 | 60 | 1010.2 |
| 20260905171517 | 78 | 355 | 2.0 | 4.0 | 0.00 | 0.00 | 0.00 | 60 | 1010.1 |
| 20260905170539 | 78 | 11 | 1.0 | 5.0 | 0.00 | 0.00 | 0.00 | 61 | 1010.2 |
| 20260905165518 | 77 | 316 | 2.0 | 5.0 | 0.00 | 0.00 | 0.00 | 62 | 1010.2 |
| 20260905164558 | 76 | 351 | 1.0 | 4.0 | 0.00 | 0.00 | 0.00 | 62 | 1010.3 |
| 20260905163518 | 77 | 349 | 1.0 | 5.0 | 0.00 | 0.00 | 0.00 | 61 | 1010.2 |
| 20260905162518 | 78 | 56 | 1.0 | 3.0 | 0.00 | 0.00 | 0.00 | 60 | 1010.1 |
| 20260905161519 | 77 | 31 | 2.0 | 4.0 | 0.00 | 0.00 | 0.00 | 61 | 1010.2 |
| 20260905160519 | 78 | 324 | 2.0 | 4.0 | 0.00 | 0.00 | 0.00 | 61 | 1010.2 |
| 20260905155519 | 78 | 12 | 2.0 | 3.0 | 0.00 | 0.00 | 0.00 | 61 | 1010.2 |
| 20260905154519 | 78 | 337 | 2.0 | 4.0 | 0.00 | 0.00 | 0.00 | 61 | 1010.2 |
| 20260905153519 | 77 | 232 | 1.0 | 3.0 | 0.00 | 0.00 | 0.00 | 63 | 1010.3 |
| 20260905152519 | 78 | 346 | 2.0 | 4.0 | 0.00 | 0.00 | 0.00 | 61 | 1010.5 |
| 20260905151519 | 78 | 0.0 | 0.0 | 0.00 | 0.00 | 0.00 | 62 | 1010.4 | |
| 20260905150519 | 77 | 5 | 2.0 | 6.0 | 0.00 | 0.00 | 0.00 | 63 | 1010.3 |
| 20260905145520 | 77 | 53 | 1.0 | 4.0 | 0.00 | 0.00 | 0.00 | 65 | 1010.4 |
| 20260905144520 | 76 | 350 | 2.0 | 4.0 | 0.00 | 0.00 | 0.00 | 66 | 1010.4 |
| 20260905143520 | 76 | 353 | 3.0 | 7.0 | 0.00 | 0.00 | 0.00 | 65 | 1010.3 |
| 20260905142515 | 77 | 360 | 2.0 | 7.0 | 0.00 | 0.00 | 0.00 | 66 | 1010.2 |
| 20260905141520 | 76 | 22 | 1.0 | 5.0 | 0.00 | 0.00 | 0.00 | 68 | 1010.2 |
| 20260905140520 | 75 | 359 | 2.0 | 4.0 | 0.00 | 0.00 | 0.00 | 71 | 1010.2 |
| 20260905135520 | 74 | 356 | 2.0 | 4.0 | 0.00 | 0.00 | 0.00 | 71 | 1010.4 |
| 20260905134521 | 73 | 320 | 1.0 | 4.0 | 0.00 | 0.00 | 0.00 | 73 | 1010.4 |
| 20260905133516 | 73 | 343 | 2.0 | 5.0 | 0.00 | 0.00 | 0.00 | 73 | 1010.6 |
| 20260905132522 | 72 | 322 | 1.0 | 4.0 | 0.00 | 0.00 | 0.00 | 73 | 1010.6 |
| 20260905131521 | 71 | 16 | 1.0 | 4.0 | 0.00 | 0.00 | 0.00 | 74 | 1010.7 |
| 20260905130522 | 71 | 1 | 1.0 | 2.0 | 0.00 | 0.00 | 0.00 | 73 | 1010.9 |
| 20260905125521 | 71 | 348 | 2.0 | 4.0 | 0.00 | 0.00 | 0.00 | 74 | 1010.8 |
| 20260905124601 | 70 | 330 | 1.0 | 3.0 | 0.00 | 0.00 | 0.00 | 75 | 1010.8 |
| 20260905123522 | 70 | 320 | 1.0 | 3.0 | 0.00 | 0.00 | 0.00 | 76 | 1010.9 |
| 20260905122542 | 69 | 309 | 2.0 | 3.0 | 0.00 | 0.00 | 0.00 | 77 | 1010.9 |
| 20260905121542 | 68 | 351 | 1.0 | 4.0 | 0.00 | 0.00 | 0.00 | 78 | 1010.9 |
| 20260905120517 | 67 | 345 | 1.0 | 6.0 | 0.00 | 0.00 | 0.00 | 79 | 1010.9 |
| 20260905115543 | 67 | 342 | 3.0 | 4.0 | 0.00 | 0.00 | 0.00 | 79 | 1010.8 |
| 20260905114518 | 67 | 355 | 2.0 | 7.0 | 0.00 | 0.00 | 0.00 | 79 | 1010.7 |
| 20260905113522 | 67 | 340 | 2.0 | 5.0 | 0.00 | 0.00 | 0.00 | 79 | 1010.4 |
| 20260905112518 | 66 | 360 | 3.0 | 7.0 | 0.00 | 0.00 | 0.00 | 80 | 1010.3 |
| 20260905111518 | 66 | 3 | 3.0 | 8.0 | 0.00 | 0.00 | 0.00 | 81 | 1010.2 |
| 20260905110524 | 65 | 5 | 1.0 | 5.0 | 0.00 | 0.00 | 0.00 | 83 | 1010.0 |
| 20260905105523 | 65 | 336 | 1.0 | 4.0 | 0.00 | 0.00 | 0.00 | 83 | 1010.0 |
| 20260905104523 | 64 | 312 | 1.0 | 2.0 | 0.00 | 0.00 | 0.00 | 84 | 1010.0 |
| 20260905103523 | 64 | 354 | 1.0 | 2.0 | 0.00 | 0.00 | 0.00 | 84 | 1010.0 |
| 20260905102523 | 64 | 0 | 0.0 | 1.0 | 0.00 | 0.00 | 0.00 | 84 | 1010.0 |
| 20260905101524 | 65 | 12 | 0.0 | 1.0 | 0.00 | 0.00 | 0.00 | 83 | 1009.8 |
| 20260905100544 | 65 | 326 | 0.0 | 2.0 | 0.00 | 0.00 | 0.00 | 83 | 1009.7 |
| 20260905095525 | 65 | 348 | 1.0 | 3.0 | 0.00 | 0.00 | 0.00 | 82 | 1009.7 |
| 20260905094524 | 65 | 331 | 1.0 | 4.0 | 0.00 | 0.00 | 0.00 | 82 | 1009.7 |
| 20260905093520 | 66 | 358 | 2.0 | 5.0 | 0.00 | 0.00 | 0.00 | 81 | 1009.7 |
| 20260905092546 | 66 | 351 | 1.0 | 6.0 | 0.00 | 0.00 | 0.00 | 80 | 1009.6 |
| 20260905091525 | 66 | 347 | 1.0 | 3.0 | 0.00 | 0.00 | 0.00 | 79 | 1009.6 |
| 20260905090525 | 67 | 359 | 1.0 | 2.0 | 0.00 | 0.00 | 0.00 | 78 | 1009.6 |
| 20260905085545 | 67 | 346 | 2.0 | 3.0 | 0.00 | 0.00 | 0.00 | 77 | 1009.6 |
| 20260905084525 | 68 | 2 | 1.0 | 3.0 | 0.00 | 0.00 | 0.00 | 76 | 1009.6 |
| 20260905083525 | 68 | 349 | 1.0 | 3.0 | 0.00 | 0.00 | 0.00 | 75 | 1009.6 |
| 20260905082521 | 69 | 348 | 2.0 | 6.0 | 0.00 | 0.00 | 0.00 | 74 | 1009.5 |
| 20260905081541 | 69 | 354 | 3.0 | 7.0 | 0.00 | 0.00 | 0.00 | 73 | 1009.5 |
| 20260905080521 | 69 | 11 | 3.0 | 6.0 | 0.00 | 0.00 | 0.00 | 73 | 1009.6 |
| 20260905075548 | 70 | 343 | 2.0 | 4.0 | 0.00 | 0.03 | 0.00 | 72 | 1009.5 |
| 20260905074515 | 70 | 4 | 1.0 | 6.0 | 0.00 | 0.20 | 0.00 | 71 | 1009.4 |
| 20260905073546 | 70 | 350 | 3.0 | 4.0 | 0.00 | 0.28 | 0.00 | 71 | 1009.3 |
| 20260905072536 | 70 | 346 | 3.0 | 7.0 | 0.00 | 0.28 | 0.00 | 71 | 1009.4 |
| 20260905071527 | 70 | 334 | 3.0 | 6.0 | 0.00 | 0.28 | 0.00 | 70 | 1009.5 |
| 20260905070556 | 70 | 334 | 2.0 | 6.0 | 0.00 | 0.29 | 0.00 | 70 | 1009.5 |
| 20260905065516 | 70 | 346 | 2.0 | 5.0 | 0.00 | 0.50 | 0.00 | 70 | 1009.6 |
| 20260905064527 | 70 | 328 | 3.0 | 5.0 | 0.00 | 0.57 | 0.00 | 70 | 1009.7 |
| 20260905063528 | 70 | 341 | 2.0 | 5.0 | 0.00 | 0.63 | 0.00 | 71 | 1009.7 |
| 20260905062527 | 70 | 333 | 1.0 | 5.0 | 0.00 | 0.76 | 0.00 | 70 | 1009.8 |
| 20260905061547 | 71 | 341 | 3.0 | 5.0 | 0.00 | 0.76 | 0.00 | 70 | 1009.8 |
| 20260905060527 | 71 | 335 | 2.0 | 5.0 | 0.00 | 0.76 | 0.00 | 70 | 1009.9 |
| 20260905055517 | 71 | 328 | 2.0 | 5.0 | 0.00 | 0.79 | 0.00 | 69 | 1010.0 |
| 20260905054527 | 71 | 331 | 2.0 | 4.0 | 0.00 | 0.85 | 0.00 | 69 | 1010.1 |
| 20260905053529 | 71 | 348 | 2.0 | 4.0 | 0.00 | 0.90 | 0.00 | 68 | 1010.2 |
| 20260905052529 | 71 | 338 | 2.0 | 6.0 | 0.00 | 0.92 | 0.00 | 67 | 1010.2 |
| 20260905051517 | 71 | 341 | 2.0 | 6.0 | 0.00 | 0.92 | 0.00 | 68 | 1010.3 |
| 20260905050548 | 70 | 333 | 2.0 | 4.0 | 0.00 | 0.92 | 0.00 | 71 | 1010.5 |
| 20260905045528 | 70 | 334 | 0.0 | 2.0 | 0.00 | 0.92 | 0.00 | 73 | 1010.6 |
| 20260905044528 | 70 | 345 | 2.0 | 4.0 | 0.00 | 0.92 | 0.00 | 73 | 1010.7 |
| 20260905043528 | 71 | 0 | 1.0 | 3.0 | 0.00 | 0.92 | 0.00 | 72 | 1010.7 |
| 20260905042528 | 71 | 328 | 0.0 | 2.0 | 0.00 | 0.92 | 0.00 | 71 | 1010.6 |
| 20260905041529 | 71 | 328 | 2.0 | 3.0 | 0.00 | 0.92 | 0.00 | 71 | 1010.8 |
| 20260905040529 | 70 | 336 | 0.0 | 2.0 | 0.00 | 0.92 | 0.00 | 74 | 1010.8 |
| 20260905035515 | 70 | 334 | 1.0 | 3.0 | 0.00 | 0.92 | 0.92 | 75 | 1010.8 |
| 20260905034516 | 70 | 299 | 0.0 | 2.0 | 0.00 | 0.93 | 0.92 | 76 | 1010.7 |
| 20260905033516 | 71 | 293 | 0.0 | 1.0 | 0.00 | 0.95 | 0.92 | 75 | 1010.7 |
| 20260905032516 | 71 | 322 | 1.0 | 2.0 | 0.00 | 0.95 | 0.92 | 75 | 1010.8 |
| 20260905031516 | 70 | 301 | 1.0 | 1.0 | 0.00 | 0.95 | 0.92 | 77 | 1010.7 |
| 20260905030516 | 71 | 296 | 0.0 | 1.0 | 0.00 | 0.95 | 0.92 | 80 | 1010.7 |
| 20260905025517 | 71 | 338 | 0.0 | 1.0 | 0.00 | 0.95 | 0.92 | 81 | 1010.6 |
| 20260905024520 | 71 | 309 | 0.0 | 1.0 | 0.00 | 0.95 | 0.92 | 81 | 1010.6 |
| 20260905023517 | 71 | 323 | 0.0 | 1.0 | 0.00 | 0.95 | 0.92 | 81 | 1010.5 |
| 20260905022517 | 71 | 309 | 1.0 | 2.0 | 0.00 | 0.95 | 0.92 | 82 | 1010.6 |
| 20260905021517 | 72 | 311 | 1.0 | 2.0 | 0.00 | 0.95 | 0.92 | 81 | 1010.7 |
| 20260905020517 | 72 | 304 | 0.0 | 1.0 | 0.00 | 0.95 | 0.92 | 80 | 1010.7 |
| 20260905015538 | 73 | 279 | 0.0 | 1.0 | 0.00 | 0.95 | 0.92 | 79 | 1010.6 |
| 20260905014518 | 73 | 303 | 1.0 | 1.0 | 0.00 | 0.95 | 0.92 | 78 | 1010.5 |
| 20260905013518 | 74 | 309 | 0.0 | 1.0 | 0.00 | 0.95 | 0.92 | 77 | 1010.5 |
| 20260905012518 | 74 | 0.0 | 0.0 | 0.00 | 0.95 | 0.92 | 76 | 1010.5 | |
| 20260905011518 | 74 | 0.0 | 0.0 | 0.00 | 0.95 | 0.92 | 76 | 1010.5 | |
| 20260905010518 | 74 | 274 | 0.0 | 1.0 | 0.00 | 0.95 | 0.92 | 76 | 1010.7 |
| 20260905005519 | 74 | 0.0 | 0.0 | 0.00 | 0.95 | 0.92 | 76 | 1010.6 | |
| 20260905004518 | 75 | 0.0 | 0.0 | 0.00 | 0.95 | 0.92 | 76 | 1010.6 | |
| 20260905003518 | 75 | 0.0 | 0.0 | 0.00 | 0.95 | 0.92 | 74 | 1010.6 | |
| 20260905002519 | 75 | 0.0 | 0.0 | 0.00 | 0.95 | 0.92 | 72 | 1010.5 | |
| 20260905001539 | 75 | 0.0 | 0.0 | 0.00 | 0.95 | 0.92 | 71 | 1010.5 | |
| 20260905000523 | 75 | 0.0 | 0.0 | 0.00 | 0.95 | 0.92 | 71 | 1010.5 | |
| 20260904235520 | 75 | 290 | 0.0 | 1.0 | 0.00 | 0.95 | 0.92 | 70 | 1010.4 |
| 20260904234539 | 76 | 248 | 0.0 | 1.0 | 0.00 | 0.95 | 0.92 | 69 | 1010.3 |
| 20260904233520 | 77 | 209 | 0.0 | 1.0 | 0.00 | 0.95 | 0.92 | 66 | 1010.2 |
| 20260904232520 | 78 | 0.0 | 0.0 | 0.00 | 0.95 | 0.92 | 64 | 1010.3 | |
| 20260904231541 | 79 | 0.0 | 0.0 | 0.00 | 0.95 | 0.92 | 63 | 1010.2 | |
| 20260904230520 | 80 | 127 | 0.0 | 2.0 | 0.00 | 0.95 | 0.92 | 62 | 1010.2 |
| 20260904225521 | 80 | 344 | 1.0 | 3.0 | 0.00 | 0.95 | 0.92 | 60 | 1010.2 |
| 20260904224521 | 81 | 320 | 1.0 | 2.0 | 0.00 | 0.95 | 0.92 | 58 | 1010.1 |
| 20260904223521 | 82 | 312 | 1.0 | 3.0 | 0.00 | 0.95 | 0.92 | 56 | 1010.1 |
| 20260904222521 | 83 | 307 | 1.0 | 2.0 | 0.00 | 0.95 | 0.92 | 55 | 1010.2 |
| 20260904221521 | 83 | 355 | 1.0 | 3.0 | 0.00 | 0.95 | 0.92 | 56 | 1010.0 |
| 20260904220521 | 82 | 319 | 2.0 | 3.0 | 0.00 | 0.95 | 0.92 | 57 | 1010.0 |
| 20260904215519 | 82 | 315 | 3.0 | 6.0 | 0.00 | 0.95 | 0.92 | 56 | 1010.1 |
| 20260904214522 | 82 | 309 | 2.0 | 3.0 | 0.00 | 0.95 | 0.92 | 56 | 1010.1 |
| 20260904213521 | 82 | 313 | 1.0 | 2.0 | 0.00 | 0.95 | 0.92 | 56 | 1010.0 |
| 20260904212522 | 82 | 322 | 1.0 | 3.0 | 0.00 | 0.95 | 0.92 | 56 | 1010.0 |
| 20260904211602 | 82 | 348 | 1.0 | 3.0 | 0.00 | 0.95 | 0.92 | 55 | 1010.0 |
| 20260904210522 | 83 | 350 | 2.0 | 4.0 | 0.00 | 0.95 | 0.92 | 54 | 1010.1 |
| 20260904205523 | 82 | 338 | 3.0 | 5.0 | 0.00 | 0.95 | 0.92 | 55 | 1010.1 |
| 20260904204521 | 83 | 306 | 2.0 | 7.0 | 0.00 | 0.95 | 0.92 | 53 | 1010.1 |
| 20260904203543 | 85 | 344 | 1.0 | 3.0 | 0.00 | 0.95 | 0.92 | 51 | 1010.1 |
| 20260904202524 | 85 | 2 | 1.0 | 4.0 | 0.00 | 0.95 | 0.92 | 52 | 1010.1 |
| 20260904201521 | 85 | 347 | 3.0 | 5.0 | 0.00 | 0.95 | 0.92 | 52 | 1010.3 |
| 20260904200523 | 84 | 319 | 2.0 | 4.0 | 0.00 | 0.95 | 0.92 | 53 | 1010.2 |
| 20260904195520 | 84 | 324 | 2.0 | 6.0 | 0.00 | 0.95 | 0.92 | 53 | 1010.2 |
| 20260904194540 | 84 | 314 | 2.0 | 6.0 | 0.00 | 0.95 | 0.92 | 53 | 1010.2 |
| 20260904193523 | 84 | 318 | 3.0 | 6.0 | 0.00 | 0.95 | 0.92 | 54 | 1010.3 |
| 20260904192521 | 85 | 325 | 2.0 | 6.0 | 0.00 | 0.95 | 0.92 | 53 | 1010.5 |
| 20260904191524 | 85 | 341 | 2.0 | 4.0 | 0.00 | 0.95 | 0.92 | 54 | 1010.6 |
| 20260904190524 | 84 | 351 | 2.0 | 4.0 | 0.00 | 0.95 | 0.92 | 56 | 1010.7 |
| 20260904185541 | 83 | 328 | 2.0 | 6.0 | 0.00 | 0.95 | 0.92 | 53 | 1010.7 |
| 20260904184521 | 84 | 343 | 3.0 | 6.0 | 0.00 | 0.95 | 0.92 | 53 | 1010.8 |
| 20260904183524 | 85 | 314 | 2.0 | 5.0 | 0.00 | 0.95 | 0.92 | 54 | 1010.7 |
| 20260904182515 | 84 | 325 | 3.0 | 7.0 | 0.00 | 0.95 | 0.92 | 54 | 1010.9 |
| 20260904181516 | 84 | 350 | 3.0 | 7.0 | 0.00 | 0.95 | 0.92 | 54 | 1010.7 |
| 20260904180516 | 83 | 321 | 4.0 | 8.0 | 0.00 | 0.95 | 0.92 | 53 | 1010.6 |
| 20260904175516 | 84 | 333 | 4.0 | 7.0 | 0.00 | 0.95 | 0.92 | 53 | 1010.7 |